Weather History for FAGG - April, 2015

Change the Weather History Date:

Sunday, April 19, 2015

  Actual Average Record
Temperature  
Mean Temperature 60 °F -  
Max Temperature 70 °F 69 °F 96 °F (1998)
Min Temperature 49 °F 50 °F 45 °F (2013)
Degree Days  
Heating Degree Days 6    
Growing Degree Days 10 (Base 50)    
Moisture  
Dew Point 51 °F    
Average Humidity 77    
Maximum Humidity 94    
Minimum Humidity 47    
Precipitation  
Precipitation 0.00 in - - ()
Sea Level Pressure  
Sea Level Pressure 30.06 in    
Wind  
Wind Speed 4 mph ()    
Max Wind Speed 8 mph    
Max Gust Speed -    
Visibility 10.2 miles    
Events      
Averages and records for this station are not official NWS values.
T = Trace of Precipitation, MM = Missing Value Source: Averaged Metar Reports

Daily Weather History Graph

Daily Weather History Graph

Search for Another Location

Airport or City:

Trip Planner

Search our weather history database for the weather conditions in past years. The results will help you decide how hot, cold, wet, or windy it might be!

Date:

Astronomy

Apr. 19, 2015 Rise Set
Actual Time 6:55 AM SAST 6:03 PM SAST
Civil Twilight 6:30 AM SAST 6:28 PM SAST
Nautical Twilight 6:01 AM SAST 6:57 PM SAST
Astronomical Twilight 5:32 AM SAST 7:26 PM SAST
Moon 7:27 AM SAST (4/19) 6:45 PM SAST (4/19)
Length of Visible Light 11h 57m
Length of Day
11h 07m
New Moon, 1% of the Moon is Illuminated
Apr 19
New Moon
Apr 26
First Quarter
May 4
Full
May 11
Last Quarter
May 18
New

Hourly Weather History & Observations

Time (SAST) Temp. Dew Point Humidity Pressure Visibility Wind Dir Wind Speed Gust Speed Precip Events Conditions
12:00 AM 51.8 °F 50.0 °F 94% 30.12 in - NNW 3.5 mph - N/A   Clear
1:00 AM 51.8 °F 50.0 °F 94% 30.12 in - NNW 3.5 mph - N/A   Clear
2:00 AM 51 °F 49 °F 92% 30.13 in 19 mi WNW 3.5 mph - -  
2:00 AM 50.0 °F 48.2 °F 94% 30.12 in - Variable 2.3 mph - N/A   Clear
3:00 AM 50.0 °F 48.2 °F 94% 30.09 in - North 4.6 mph - N/A   Clear
4:00 AM 50.0 °F 48.2 °F 94% 30.06 in - North 2.3 mph - N/A   Clear
5:00 AM 50 °F 49 °F 94% 30.08 in 12 mi NNW 4.6 mph - -  
5:00 AM 50.0 °F 48.2 °F 94% 30.06 in - NNW 4.6 mph - N/A   Clear
6:00 AM 50.0 °F 48.2 °F 94% 30.06 in - NNW 4.6 mph - N/A   Clear
7:00 AM 50.0 °F 48.2 °F 94% 30.06 in - Variable 2.3 mph - N/A   Clear
8:00 AM 54 °F 51 °F 88% 30.10 in 12 mi 2.3 mph - -  
8:00 AM 53.6 °F 51.8 °F 94% 30.09 in - Variable 2.3 mph - N/A   Clear
9:00 AM 60.8 °F 53.6 °F 77% 30.09 in - NNE 3.5 mph - N/A   Clear
10:00 AM 66.2 °F 55.4 °F 68% 30.09 in - Variable 1.2 mph - N/A   Clear
11:00 AM 68 °F 54 °F 52% 30.09 in 12 mi South 3.5 mph - -   Scattered Clouds
11:00 AM 69.8 °F 55.4 °F 60% 30.06 in - South 3.5 mph - N/A   Clear
12:00 PM 69.8 °F 53.6 °F 56% 30.06 in - South 8.1 mph - N/A   Clear
1:00 PM 68.0 °F 53.6 °F 60% 30.04 in 6.2 mi South 8.1 mph - N/A   Partly Cloudy
2:00 PM 69 °F 53 °F 47% 30.04 in 12 mi SSE 5.8 mph - -   Scattered Clouds
2:00 PM 69.8 °F 53.6 °F 56% 30.04 in 6.2 mi SSE 5.8 mph - N/A   Partly Cloudy
3:00 PM 69.8 °F 53.6 °F 56% 30.01 in 6.2 mi SSE 8.1 mph - N/A   Partly Cloudy
4:00 PM 68.0 °F 50.0 °F 52% 30.01 in - ESE 6.9 mph - N/A   Clear
5:00 PM 67 °F 52 °F 47% 30.01 in 12 mi ESE 6.9 mph - -   Clear
5:00 PM 66.2 °F 51.8 °F 60% 30.01 in - ESE 6.9 mph - N/A   Clear
6:00 PM 60.8 °F 51.8 °F 72% 30.01 in - ESE 8.1 mph - N/A   Clear
7:00 PM 57.2 °F 51.8 °F 82% 30.01 in - East 8.1 mph - N/A   Clear
8:00 PM 58 °F 52 °F 75% 30.02 in 12 mi North 2.3 mph - -   Partly Cloudy
8:00 PM 57.2 °F 51.8 °F 82% 30.01 in - Variable 2.3 mph - N/A   Clear
9:00 PM 55.4 °F 51.8 °F 88% 30.01 in 6.2 mi NNW 4.6 mph - N/A   Partly Cloudy
10:00 PM 57.2 °F 50.0 °F 77% 30.01 in - Variable 2.3 mph - N/A   Clear
11:00 PM 55.4 °F 51.8 °F 88% 30.01 in 6.2 mi North 2.3 mph - N/A   Partly Cloudy